FENGYUN 1C DEB, 31172

Orbit data source: Space-Track

FENGYUN 1C DEB, 31172 is space debris in SSO originally from a launch on Mon, 10 May 1999 UTC launched from the Taiyaun Space Center, China (TSC). Fengyun 1C debris stems from the Chinese weather satellite Fengyun-1C, which was intentionally destroyed by a Chinese anti-satellite missile in 2007. This event dramatically increased the amount of space debris, with thousands of trackable fragments posing hazards to satellites and human spaceflight. The Fengyun 1C debris cloud has become a focal point in discussions about space sustainability and the need for international regulations to prevent the creation of new debris.

Loading next visibility...
Identifier
31172, 1999-025BJA
Orbit
SSO
Country
Flag of CNCN / PRC
Related business
Manufacturer
Unknown
Mission
Spacecraft
Bus & Motor
Unknown
Mass
Unknown
Launch date (UTC)
1999-05-10 (27 years ago)
Launch vehicle
Unknown
Launch site
Taiyaun Space Center, China (TSC)
Object type
Payload
Rocket body
Debris
Shape & HBR
Unknown shape, 0.1 m
Radar Cross Section
Small (<0.1 m²)

Expand to show TLE details & history
Last TLE update: 2 days ago

TLE from 2 days ago
0 FENGYUN 1C DEB
1 31172U 99025BJA 25349.73585471  .00000415  00000-0  15412-3 0  9998
2 31172  98.4249 354.1225 0148060 259.5818  98.8651 14.31516500976691
Epoch: 2025-12-15T17:39Z
TLE epoch observation values (Epoch: 2025-12-15T17:39:37.846Z)
Latitude
-0.00002°
Longitude
4.58466°
Altitude
807.485 km
Speed
7.44 km/s
True Right ascension
23h 36m 29s
True Declination
0° 00' 00"
Sunlit
Object was in daylight at epoch
Visualization orbit readout
Latitude
Unknown
Longitude
Unknown
Altitude
Unknown
Speed
Unknown
Apparent Right ascension
Unknown
Apparent Declination
Unknown
Sunlit
N/A
Visualization observer readout
Local Sidereal Time
21:52:06
Azimuth
Unknown
Elevation
Unknown
Doppler factor
Unknown
Orbital elements
Apogee altitude
889.835 km
Perigee altitude
677.755 km
Semi-major axis
7,161.932 km
Eccentricity
0.01481
Inclination
98.4249°
RAAN
354.1225°
Arg. of periapsis
259.5818°
True anomaly
100.53647°
Mean anomaly
98.8651°
Eccentric anomaly
99.70129°
Mean motion
3.58095 °/min
Orbital period
100.53 mins
BSTAR
0.00015412
Loading maneuver chart data...
Computing Atmospheric mass density...

Documentation

Showing up to 5 results
|